Find Starlink 5571

NORAD ID: 55380 Int'l Des: 2023-013 Owner: SPXS Country: US Constellation: starlink operational
LEOCIRCULAR

現在のビュー

3D地球を読み込み中...

About Starlink 5571

Starlink 5571 (NORAD 55380) is a starlink constellation satellite (v1.5) launched Jan 26, 2023 by SPXS of US. It operates in LEO, CIRCULAR orbit with a mass of 305.00 kg.

Starlink 5571について

説明を読み込み中...

次回通過

Passes for default location (London). Set your location on the main map for personalized predictions.

高度履歴

Loading altitude history...

軌道要素

1 55380U 23013BB 26195.58597909 .00025604 00000-0 10612-2 0 9994
2 55380 42.9985 310.5095 0000974 266.2897 93.7842 15.23423534191032
Epoch: Jul 14, 2026 • Age: 8 hours

現在のステータス

高度 498.9 km
遠地点 / 近地点 N/A
速度 7.62 km/s
衛星直下点 41.42°N, 112.1°E
打ち上げ日 Jan 26, 2023
運用期間 3.4 years
タイプ internet

技術仕様

分類 Payload
質量 305.00 kg
乾燥質量 290.00 kg
総質量 305.00 kg
長さ 0.20 m
直径 2.80 m
スパン 9.00 m
形状 Box + pan
製造者 SPXS
バスタイプ Starlink
フェーズステータス In Orbit
所有者/国 SPXS/US

Most Searched